Weather in Verkhnie Tatishli

Russia / Republic of Bashkortostan     56°17′31″N   55°51′21″E
temp.,
°C
wind,
m/s
gust,
m/s
humid.,
%
clouds,
%
prec.,
mm/h
press.,
hPa
HPBL,
m
26 february, fri
fri2623:00−26sse34950 0.0 102856
02:00−27sse36940 0.0 1027100
05:00−28se36960 0.0 102796
08:00−28se359624 0.0 1026113
11:00−23sse479657 0.0 1025282
14:00−18sse489196 0.0 1024434
17:00−16sse489097 0.0 1023500
20:00−19sse499498 0.0 1020231
27 february, sat
sat2723:00−20se489665 0.0 1018169
02:00−18se5139485 0.0 1014495
05:00−17se6148893 0.0 1012564
08:00−15se71394100 0.3 1008670
11:00−13se61193100 1.6 1006763
14:00−11se5890100 0.7 1004826
17:00−10se4792100 1.1 1004658
20:00−12e5995100 0.3 1004294
28 february, sun
sun2823:00−14ene599398 0.5 1004268
02:00−16ene499394 0.0 1003225
05:00−16ne599395 0.0 1004225
08:00−15ne599491 0.0 1003234
11:00−12ne599296 0.1 1004375
14:00−10ne5891100 0.1 1005486
17:00−11nne61092100 0.3 1006428
20:00−13nne6119397 0.3 1008401
1 march, mon
mon123:00−15ne5109297 0.4 1011351
02:00−18nne499378 0.0 1013216
05:00−21nne499545 0.0 1015163
08:00−23nne47950 0.0 1017139
11:00−20ne46930 0.0 1019239
14:00−15nne35870 0.0 1019325
17:00−14n248732 0.0 1020397
20:00−20nw119941 0.0 102020
2 march, tue
tue223:00−20sw229950 0.0 102020
02:00−21sw3310013 0.0 101841
05:00−22ssw4710052 0.0 1016119
08:00−21s51097100 0.0 1014263
11:00−18s61193100 0.0 1011352
14:00−15s61194100 0.4 1009449
17:00−13ssw61094100 1.3 1007584
20:00−13ssw41095100 0.5 1006479